Weather History for New Orleans NAS, LA

Change the Weather History Date:

Tuesday, November 5, 2013

  Actual Average Record
Temperature  
Mean Temperature 72 °F -  
Max Temperature 77 °F 72 °F 82 °F (2003)
Min Temperature 68 °F 54 °F 44 °F (1997)
Cooling Degree Days 8    
Growing Degree Days 22 (Base 50)    
Moisture  
Dew Point 64 °F    
Average Humidity 78    
Maximum Humidity 88    
Minimum Humidity 64    
Precipitation  
Precipitation 0.00 in - - ()
Sea Level Pressure  
Sea Level Pressure 30.15 in    
Wind  
Wind Speed 15 mph (East)    
Max Wind Speed 22 mph    
Max Gust Speed 29 mph    
Visibility 10 miles    
Events      
Averages and records for this station are not official NWS values.
T = Trace of Precipitation, MM = Missing Value Source: NWS Daily Summary

Daily Weather History Graph

Daily Weather History Graph

Search for Another Location

Airport:

Trip Planner

Search our weather history database for the weather conditions in past years. The results will help you decide how hot, cold, wet, or windy it might be!

Date:

Astronomy

Nov. 05, 2013 Rise Set
Actual Time 6:17 AM CST 5:10 PM CST
Civil Twilight 5:52 AM CST 5:34 PM CST
Nautical Twilight 5:23 AM CST 6:03 PM CST
Astronomical Twilight 4:55 AM CST 6:31 PM CST
Moon 8:26 AM CST (11/5) 7:17 PM CST (11/5)
Length of Visible Light 11h 42m
Length of Day
10h 53m
Waxing Crescent, 7% of the Moon is Illuminated
Nov 5
Waxing Crescent
Nov 9
First Quarter
Nov 17
Full
Nov 25
Last Quarter
Dec 2
New

Hourly Weather History & Observations

Time (CST) Temp. Dew Point Humidity Pressure Visibility Wind Dir Wind Speed Gust Speed Precip Events Conditions
12:55 AM 70.0 °F 61.0 °F 73% 30.13 in 10.0 mi East 15.0 mph 21.9 mph N/A   Overcast
1:55 AM 71.1 °F 61.0 °F 70% 30.12 in 10.0 mi East 16.1 mph 21.9 mph N/A   Overcast
2:55 AM 69.1 °F 63.0 °F 81% 30.12 in 10.0 mi East 16.1 mph - N/A   Overcast
3:55 AM 70.0 °F 63.0 °F 78% 30.13 in 10.0 mi East 9.2 mph - N/A   Overcast
4:55 AM 71.1 °F 64.0 °F 78% 30.13 in 10.0 mi East 13.8 mph - N/A   Overcast
5:25 AM 69.8 °F 64.4 °F 83% 30.15 in 10.0 mi ENE 12.7 mph - N/A   Overcast
5:47 AM 68.0 °F 64.4 °F 88% 30.15 in 10.0 mi ENE 12.7 mph - N/A   Overcast
5:55 AM 68.0 °F 63.0 °F 84% 30.16 in 10.0 mi ENE 12.7 mph - N/A   Overcast
6:12 AM 68.0 °F 62.6 °F 83% 30.16 in 7.0 mi East 13.8 mph 23.0 mph N/A   Overcast
6:35 AM 68.0 °F 62.6 °F 83% 30.17 in 7.0 mi ENE 13.8 mph - N/A   Overcast
6:55 AM 68.0 °F 63.0 °F 84% 30.17 in 7.0 mi ENE 13.8 mph - N/A   Overcast
7:02 AM 68.0 °F 62.6 °F 83% 30.18 in 7.0 mi ENE 16.1 mph - N/A   Overcast
7:55 AM 69.1 °F 63.0 °F 81% 30.18 in 7.0 mi ENE 15.0 mph 20.7 mph N/A   Overcast
8:55 AM 70.0 °F 63.0 °F 78% 30.20 in 10.0 mi East 18.4 mph 27.6 mph N/A   Overcast
9:55 AM 72.0 °F 63.0 °F 73% 30.21 in 10.0 mi ENE 12.7 mph 23.0 mph N/A   Overcast
10:55 AM 75.0 °F 64.0 °F 69% 30.19 in 10.0 mi East 17.3 mph 24.2 mph N/A   Mostly Cloudy
11:55 AM 75.0 °F 63.0 °F 66% 30.16 in 10.0 mi East 20.7 mph 28.8 mph N/A   Mostly Cloudy
12:37 PM 75.2 °F 64.4 °F 69% 30.15 in 10.0 mi East 21.9 mph 25.3 mph N/A   Mostly Cloudy
12:49 PM 75.2 °F 64.4 °F 69% 30.15 in 10.0 mi East 17.3 mph 25.3 mph N/A   Mostly Cloudy
12:55 PM 77.0 °F 64.0 °F 64% 30.14 in 10.0 mi East 16.1 mph 24.2 mph N/A   Mostly Cloudy
1:06 PM 75.2 °F 62.6 °F 65% 30.14 in 10.0 mi East 18.4 mph 27.6 mph N/A   Mostly Cloudy
1:55 PM 73.9 °F 64.0 °F 71% 30.13 in 10.0 mi East 18.4 mph 25.3 mph N/A   Mostly Cloudy
2:55 PM 75.0 °F 64.0 °F 69% 30.12 in 10.0 mi East 20.7 mph 24.2 mph N/A   Mostly Cloudy
3:55 PM 73.0 °F 64.0 °F 73% 30.13 in 10.0 mi East 18.4 mph 25.3 mph N/A   Mostly Cloudy
5:02 PM 71.6 °F 64.4 °F 78% 30.12 in 10.0 mi East 11.5 mph 23.0 mph N/A   Mostly Cloudy
5:55 PM 70.0 °F 64.0 °F 81% 30.12 in 10.0 mi East 10.4 mph - N/A   Scattered Clouds
6:55 PM 70.0 °F 64.9 °F 84% 30.13 in 10.0 mi East 8.1 mph - N/A   Scattered Clouds
7:53 PM 69.8 °F 64.4 °F 83% 30.14 in 10.0 mi East 11.5 mph - N/A   Mostly Cloudy
7:55 PM 70.0 °F 64.9 °F 84% 30.14 in 10.0 mi East 11.5 mph - N/A   Mostly Cloudy
8:55 PM 70.0 °F 64.9 °F 84% 30.14 in 10.0 mi East 10.4 mph - N/A   Scattered Clouds
9:55 PM 70.0 °F 64.9 °F 84% 30.14 in 10.0 mi East 10.4 mph - N/A   Partly Cloudy
10:55 PM 70.0 °F 64.0 °F 81% 30.13 in 10.0 mi East 8.1 mph - N/A   Scattered Clouds
11:55 PM 69.1 °F 64.0 °F 84% 30.12 in 10.0 mi East 12.7 mph - N/A   Clear